Weather History for Telluride, CO

Change the Weather History Date:

Monday, September 23, 2013

  Actual Average Record
Temperature  
Mean Temperature 42 °F -  
Max Temperature 51 °F 59 °F 69 °F (2001)
Min Temperature 33 °F 39 °F 26 °F (2004)
Degree Days  
Heating Degree Days 23    
Moisture  
Dew Point 34 °F    
Average Humidity 77    
Maximum Humidity 100    
Minimum Humidity 50    
Precipitation  
Precipitation 0.12 in - - ()
Sea Level Pressure  
Sea Level Pressure 30.18 in    
Wind  
Wind Speed 4 mph (WSW)    
Max Wind Speed 12 mph    
Max Gust Speed 22 mph    
Visibility 9 miles    
Events Rain , Snow    
Averages and records for this station are not official NWS values.
T = Trace of Precipitation, MM = Missing Value Source: NWS Daily Summary

Daily Weather History Graph

Daily Weather History Graph

Search for Another Location

Airport:

Trip Planner

Search our weather history database for the weather conditions in past years. The results will help you decide how hot, cold, wet, or windy it might be!

Date:

Astronomy

Sep. 23, 2013 Rise Set
Actual Time 7:00 AM MDT 7:06 PM MDT
Civil Twilight 6:34 AM MDT 7:32 PM MDT
Nautical Twilight 6:03 AM MDT 8:03 PM MDT
Astronomical Twilight 5:32 AM MDT 8:34 PM MDT
Moon 9:45 PM MDT 11:17 AM MDT
Length of Visible Light 12h 58m
Length of Day
12h 06m
Waning Gibbous, 81% of the Moon is Illuminated
Sep 23
Waning Gibbous
Sep 26
Last Quarter
Oct 4
New
Oct 11
First Quarter
Oct 18
Full

Hourly Weather History & Observations

Time (MDT) Temp. Windchill Dew Point Humidity Pressure Visibility Wind Dir Wind Speed Gust Speed Precip Events Conditions
12:15 AM 33.8 °F - 33.8 °F 100% 29.99 in 2.5 mi Calm Calm - N/A Snow Light Snow
12:35 AM 33.8 °F - 33.8 °F 100% 29.99 in 3.0 mi Calm Calm - N/A   Overcast
12:55 AM 33.8 °F 29.6 °F 33.8 °F 100% 29.99 in 10.0 mi SSE 4.6 mph - N/A   Overcast
1:15 AM 33.8 °F 28.6 °F 33.8 °F 100% 29.99 in 10.0 mi ESE 5.8 mph - N/A   Overcast
1:35 AM 33.8 °F - 33.8 °F 100% 29.99 in 1.0 mi Calm Calm - N/A   Overcast
1:55 AM 33.8 °F - 33.8 °F 100% 30.00 in 3.0 mi Calm Calm - N/A Snow Light Snow
2:15 AM 35.6 °F - 35.6 °F 100% 30.01 in 10.0 mi Calm Calm - N/A   Overcast
2:35 AM 35.6 °F - 33.8 °F 93% 30.01 in 10.0 mi Calm Calm - N/A   Overcast
2:55 AM 35.6 °F 32.8 °F 35.6 °F 100% 30.02 in 10.0 mi West 3.5 mph - N/A Snow Light Snow
3:15 AM 35.6 °F 29.9 °F 33.8 °F 93% 30.03 in 10.0 mi West 6.9 mph - N/A Snow Light Snow
3:35 AM 35.6 °F 28.6 °F 33.8 °F 93% 30.03 in 10.0 mi West 9.2 mph 17.3 mph N/A   Overcast
3:55 AM 37.4 °F 31.4 °F 35.6 °F 93% 30.04 in 10.0 mi West 8.1 mph - 0.07 in   Light Drizzle
4:15 AM 37.4 °F 33.8 °F 35.6 °F 93% 30.04 in 10.0 mi West 4.6 mph - 0.04 in Rain Light Rain
4:35 AM 37.4 °F 33.8 °F 35.6 °F 93% 30.05 in 10.0 mi West 4.6 mph - 0.05 in   Overcast
4:55 AM 37.4 °F 30.3 °F 35.6 °F 93% 30.06 in 10.0 mi West 10.4 mph - 0.05 in   Overcast
5:15 AM 37.4 °F 30.8 °F 35.6 °F 93% 30.07 in 10.0 mi West 9.2 mph - N/A   Overcast
5:35 AM 37.4 °F 31.4 °F 35.6 °F 93% 30.07 in 10.0 mi WSW 8.1 mph - N/A   Mostly Cloudy
5:55 AM 37.4 °F 32.1 °F 35.6 °F 93% 30.07 in 10.0 mi WSW 6.9 mph - N/A   Mostly Cloudy
6:15 AM 37.4 °F 32.1 °F 35.6 °F 93% 30.07 in 10.0 mi SW 6.9 mph - N/A   Mostly Cloudy
6:35 AM 37.4 °F 30.3 °F 35.6 °F 93% 30.08 in 10.0 mi West 10.4 mph - N/A   Mostly Cloudy
6:55 AM 35.6 °F - 35.6 °F 100% 30.09 in 10.0 mi Calm Calm - N/A   Mostly Cloudy
7:15 AM 37.4 °F 34.9 °F 33.8 °F 87% 30.09 in 10.0 mi WNW 3.5 mph - N/A   Mostly Cloudy
7:35 AM 37.4 °F 33.8 °F 35.6 °F 93% 30.10 in 10.0 mi SSW 4.6 mph - N/A   Overcast
7:55 AM 37.4 °F 34.9 °F 32.0 °F 81% 30.11 in 10.0 mi WSW 3.5 mph - N/A   Mostly Cloudy
8:15 AM 37.4 °F 34.9 °F 35.6 °F 93% 30.12 in 4.0 mi South 3.5 mph - N/A   Scattered Clouds
8:35 AM 37.4 °F 34.9 °F 33.8 °F 87% 30.13 in 7.0 mi SSW 3.5 mph - N/A   Scattered Clouds
8:55 AM 37.4 °F 32.8 °F 33.8 °F 87% 30.14 in 10.0 mi WSW 5.8 mph - N/A   Mostly Cloudy
9:15 AM 41.0 °F 37.1 °F 33.8 °F 76% 30.15 in 10.0 mi WSW 5.8 mph 18.4 mph N/A   Overcast
9:35 AM 41.0 °F 35.2 °F 32.0 °F 70% 30.16 in 10.0 mi West 9.2 mph - N/A   Overcast
9:55 AM 41.0 °F 38.0 °F 32.0 °F 70% 30.17 in 10.0 mi West 4.6 mph 9.2 mph N/A   Overcast
10:15 AM 42.8 °F 38.0 °F 32.0 °F 66% 30.18 in 10.0 mi WNW 8.1 mph 16.1 mph N/A   Overcast
10:35 AM 42.8 °F - 32.0 °F 66% 30.18 in 10.0 mi Calm Calm - N/A   Mostly Cloudy
10:55 AM 42.8 °F 41.1 °F 32.0 °F 66% 30.19 in 10.0 mi North 3.5 mph - N/A   Mostly Cloudy
11:15 AM 44.6 °F - 30.2 °F 57% 30.20 in 10.0 mi Calm Calm - N/A   Scattered Clouds
11:35 AM 44.6 °F - 33.8 °F 66% 30.20 in 10.0 mi Calm Calm - N/A   Mostly Cloudy
12:15 PM 44.6 °F 38.8 °F 32.0 °F 61% 30.20 in 10.0 mi West 11.5 mph 17.3 mph N/A   Scattered Clouds
12:35 PM 44.6 °F 41.4 °F 32.0 °F 61% 30.21 in 10.0 mi West 5.8 mph 21.9 mph N/A   Scattered Clouds
12:55 PM 46.4 °F 42.9 °F 32.0 °F 57% 30.21 in 10.0 mi WNW 6.9 mph - N/A   Clear
1:15 PM 46.4 °F 45.2 °F 32.0 °F 57% 30.21 in 10.0 mi West 3.5 mph - N/A   Clear
1:35 PM 48.2 °F - 32.0 °F 54% 30.21 in 10.0 mi WSW 4.6 mph - N/A   Scattered Clouds
1:55 PM 50.0 °F - 32.0 °F 50% 30.21 in 10.0 mi West 6.9 mph - N/A   Mostly Cloudy
2:15 PM 48.2 °F - 32.0 °F 54% 30.22 in 10.0 mi WSW 10.4 mph 17.3 mph N/A   Mostly Cloudy
2:35 PM 50.0 °F - 33.8 °F 54% 30.22 in 10.0 mi West 5.8 mph 10.4 mph N/A   Mostly Cloudy
2:55 PM 50.0 °F - 33.8 °F 54% 30.22 in 10.0 mi West 8.1 mph - N/A   Mostly Cloudy
3:15 PM 51.8 °F - 33.8 °F 50% 30.22 in 10.0 mi West 8.1 mph - N/A   Mostly Cloudy
3:35 PM 50.0 °F - 32.0 °F 50% 30.23 in 10.0 mi WNW 4.6 mph - N/A   Mostly Cloudy
3:55 PM 50.0 °F - 33.8 °F 54% 30.24 in 10.0 mi West 4.6 mph - N/A   Mostly Cloudy
4:15 PM 50.0 °F - 35.6 °F 58% 30.24 in 10.0 mi West 6.9 mph - N/A   Mostly Cloudy
4:35 PM 50.0 °F - 35.6 °F 58% 30.24 in 10.0 mi West 10.4 mph 17.3 mph N/A   Mostly Cloudy
4:55 PM 50.0 °F - 33.8 °F 54% 30.25 in 10.0 mi West 9.2 mph 17.3 mph N/A   Scattered Clouds
5:15 PM 51.8 °F - 35.6 °F 54% 30.25 in 10.0 mi West 8.1 mph - N/A   Mostly Cloudy
5:35 PM 50.0 °F - 33.8 °F 54% 30.26 in 10.0 mi West 9.2 mph 17.3 mph N/A   Scattered Clouds
5:55 PM 50.0 °F - 35.6 °F 58% 30.26 in 10.0 mi West 10.4 mph - N/A   Clear
6:15 PM 48.2 °F - 33.8 °F 58% 30.27 in 10.0 mi West 9.2 mph - N/A   Clear
6:35 PM 46.4 °F 41.9 °F 35.6 °F 66% 30.28 in 10.0 mi West 9.2 mph - N/A   Clear
6:55 PM 46.4 °F 42.9 °F 33.8 °F 62% 30.28 in 10.0 mi West 6.9 mph - N/A   Clear
7:15 PM 44.6 °F - 33.8 °F 66% 30.30 in 10.0 mi Calm Calm - N/A   Clear
7:35 PM 44.6 °F - 35.6 °F 71% 30.30 in 10.0 mi Calm Calm - N/A   Clear
7:55 PM 42.8 °F - 33.8 °F 70% 30.32 in 10.0 mi Calm Calm - N/A   Clear
8:15 PM 42.8 °F 39.3 °F 35.6 °F 76% 30.33 in 10.0 mi SE 5.8 mph - N/A   Clear
8:35 PM 41.0 °F - 33.8 °F 76% 30.34 in 10.0 mi Calm Calm - N/A   Clear
8:55 PM 41.0 °F 37.1 °F 35.6 °F 81% 30.34 in 10.0 mi ESE 5.8 mph - N/A   Clear
9:15 PM 41.0 °F 36.4 °F 35.6 °F 81% 30.35 in 10.0 mi SE 6.9 mph - N/A   Clear
9:35 PM 39.2 °F - 35.6 °F 87% 30.35 in 10.0 mi Calm Calm - N/A   Clear
9:55 PM 39.2 °F 35.0 °F 35.6 °F 87% 30.35 in 10.0 mi ESE 5.8 mph - N/A   Clear
10:15 PM 39.2 °F 34.2 °F 35.6 °F 87% 30.35 in 10.0 mi ESE 6.9 mph - N/A   Clear
10:35 PM 37.4 °F 33.8 °F 35.6 °F 93% 30.36 in 10.0 mi East 4.6 mph - N/A   Clear
10:55 PM 37.4 °F - 35.6 °F 93% 30.36 in 10.0 mi Calm Calm - N/A   Clear
11:15 PM 37.4 °F 32.1 °F 35.6 °F 93% 30.36 in 10.0 mi SE 6.9 mph - N/A   Clear
11:35 PM 37.4 °F 32.1 °F 33.8 °F 87% 30.36 in 10.0 mi ESE 6.9 mph - N/A   Clear
11:55 PM 37.4 °F 32.8 °F 33.8 °F 87% 30.35 in 10.0 mi SE 5.8 mph - N/A   Clear